STATION	Long[degrees_east]	Lat[degrees_north]	DEPTH[m]	time_ISO8601[ISO8601]	TEMP[deg]	PSAL[PSU]
S1	13.9484	76.4381	1006	2018-07-15 03:00:05	-0.7715	34.9061
S1	13.9484	76.4381	1006	2018-07-15 04:00:05	-0.7785	34.906
S1	13.9484	76.4381	1006	2018-07-15 05:00:04	-0.7782	34.906
S1	13.9484	76.4381	1006	2018-07-15 06:00:05	-0.8015	34.9062
S1	13.9484	76.4381	1006	2018-07-15 07:00:05	-0.8125	34.9061
S1	13.9484	76.4381	1006	2018-07-15 08:00:04	-0.8195	34.9063
S1	13.9484	76.4381	1006	2018-07-15 09:00:05	-0.8093	34.9064
S1	13.9484	76.4381	1006	2018-07-15 10:00:05	-0.8206	34.907
S1	13.9484	76.4381	1006	2018-07-15 11:00:04	-0.8221	34.9063
S1	13.9484	76.4381	1006	2018-07-15 12:00:05	-0.8171	34.9061
S1	13.9484	76.4381	1006	2018-07-15 13:00:05	-0.8216	34.9061
S1	13.9484	76.4381	1006	2018-07-15 14:00:04	-0.823	34.9064
S1	13.9484	76.4381	1006	2018-07-15 15:00:05	-0.8216	34.9063
S1	13.9484	76.4381	1006	2018-07-15 16:00:05	-0.8217	34.9063
S1	13.9484	76.4381	1006	2018-07-15 17:00:04	-0.8191	34.9061
S1	13.9484	76.4381	1006	2018-07-15 18:00:05	-0.815	34.9062
S1	13.9484	76.4381	1006	2018-07-15 19:00:05	-0.8166	34.9064
S1	13.9484	76.4381	1006	2018-07-15 20:00:04	-0.8118	34.906
S1	13.9484	76.4381	1006	2018-07-15 21:00:05	-0.772	34.9061
S1	13.9484	76.4381	1006	2018-07-15 22:00:05	-0.8036	34.9061
S1	13.9484	76.4381	1006	2018-07-15 23:00:04	-0.7804	34.9062
S1	13.9484	76.4381	1006	2018-07-16 00:00:05	-0.8122	34.9064
S1	13.9484	76.4381	1006	2018-07-16 01:00:05	-0.809	34.9063
S1	13.9484	76.4381	1006	2018-07-16 02:00:04	-0.7829	34.9064
S1	13.9484	76.4381	1006	2018-07-16 03:00:05	-0.7583	34.9059
S1	13.9484	76.4381	1006	2018-07-16 04:00:05	-0.7308	34.9062
S1	13.9484	76.4381	1006	2018-07-16 05:00:04	-0.7454	34.9064
S1	13.9484	76.4381	1006	2018-07-16 06:00:05	-0.7577	34.9063
S1	13.9484	76.4381	1006	2018-07-16 07:00:05	-0.7798	34.9064
S1	13.9484	76.4381	1006	2018-07-16 08:00:04	-0.7871	34.906
S1	13.9484	76.4381	1006	2018-07-16 09:00:05	-0.802	34.9064
S1	13.9484	76.4381	1006	2018-07-16 10:00:05	-0.8074	34.9063
S1	13.9484	76.4381	1006	2018-07-16 11:00:04	-0.7932	34.9055
S1	13.9484	76.4381	1006	2018-07-16 12:00:05	-0.8112	34.9061
S1	13.9484	76.4381	1006	2018-07-16 13:00:05	-0.8131	34.9065
S1	13.9484	76.4381	1006	2018-07-16 14:00:04	-0.815	34.9064
S1	13.9484	76.4381	1006	2018-07-16 15:00:05	-0.8113	34.906
S1	13.9484	76.4381	1006	2018-07-16 16:00:05	-0.8039	34.9061
S1	13.9484	76.4381	1006	2018-07-16 17:00:04	-0.8054	34.9062
S1	13.9484	76.4381	1006	2018-07-16 18:00:05	-0.813	34.9062
S1	13.9484	76.4381	1006	2018-07-16 19:00:05	-0.8133	34.9064
S1	13.9484	76.4381	1006	2018-07-16 20:00:04	-0.811	34.9063
S1	13.9484	76.4381	1006	2018-07-16 21:00:05	-0.806	34.9063
S1	13.9484	76.4381	1006	2018-07-16 22:00:05	-0.8011	34.9061
S1	13.9484	76.4381	1006	2018-07-16 23:00:04	-0.7965	34.9062
S1	13.9484	76.4381	1006	2018-07-17 00:00:05	-0.7915	34.9063
S1	13.9484	76.4381	1006	2018-07-17 01:00:05	-0.7821	34.9062
S1	13.9484	76.4381	1006	2018-07-17 02:00:04	-0.7679	34.906
S1	13.9484	76.4381	1006	2018-07-17 03:00:05	-0.7618	34.9062
S1	13.9484	76.4381	1006	2018-07-17 04:00:05	-0.7603	34.9062
S1	13.9484	76.4381	1006	2018-07-17 05:00:04	-0.7644	34.9059
S1	13.9484	76.4381	1006	2018-07-17 06:00:05	-0.763	34.9062
S1	13.9484	76.4381	1006	2018-07-17 07:00:05	-0.7929	34.9063
S1	13.9484	76.4381	1006	2018-07-17 08:00:04	-0.81	34.9064
S1	13.9484	76.4381	1006	2018-07-17 09:00:05	-0.8139	34.9061
S1	13.9484	76.4381	1006	2018-07-17 10:00:05	-0.8015	34.9063
S1	13.9484	76.4381	1006	2018-07-17 11:00:04	-0.8099	34.9064
S1	13.9484	76.4381	1006	2018-07-17 12:00:05	-0.807	34.9061
S1	13.9484	76.4381	1006	2018-07-17 13:00:05	-0.8123	34.9059
S1	13.9484	76.4381	1006	2018-07-17 14:00:04	-0.8107	34.9064
S1	13.9484	76.4381	1006	2018-07-17 15:00:05	-0.8134	34.9062
S1	13.9484	76.4381	1006	2018-07-17 16:00:05	-0.8135	34.906
S1	13.9484	76.4381	1006	2018-07-17 17:00:04	-0.8126	34.906
S1	13.9484	76.4381	1006	2018-07-17 18:00:05	-0.8115	34.9058
S1	13.9484	76.4381	1006	2018-07-17 19:00:05	-0.8064	34.9061
S1	13.9484	76.4381	1006	2018-07-17 20:00:04	-0.8123	34.906
S1	13.9484	76.4381	1006	2018-07-17 21:00:05	-0.8131	34.9061
S1	13.9484	76.4381	1006	2018-07-17 22:00:05	-0.8049	34.9063
S1	13.9484	76.4381	1006	2018-07-17 23:00:04	-0.8056	34.9061
S1	13.9484	76.4381	1006	2018-07-18 00:00:05	-0.8077	34.9061
S1	13.9484	76.4381	1006	2018-07-18 01:00:05	-0.8087	34.9061
S1	13.9484	76.4381	1006	2018-07-18 02:00:04	-0.8113	34.906
S1	13.9484	76.4381	1006	2018-07-18 03:00:05	-0.8119	34.9063
S1	13.9484	76.4381	1006	2018-07-18 04:00:05	-0.8114	34.9062
S1	13.9484	76.4381	1006	2018-07-18 05:00:04	-0.8127	34.906
S1	13.9484	76.4381	1006	2018-07-18 06:00:05	-0.8098	34.9063
S1	13.9484	76.4381	1006	2018-07-18 07:00:05	-0.7995	34.9062
S1	13.9484	76.4381	1006	2018-07-18 08:00:04	-0.8004	34.9059
S1	13.9484	76.4381	1006	2018-07-18 09:00:05	-0.8088	34.9063
S1	13.9484	76.4381	1006	2018-07-18 10:00:05	-0.8129	34.9062
S1	13.9484	76.4381	1006	2018-07-18 11:00:04	-0.8072	34.906
S1	13.9484	76.4381	1006	2018-07-18 12:00:05	-0.8183	34.9062
S1	13.9484	76.4381	1006	2018-07-18 13:00:05	-0.8251	34.9062
S1	13.9484	76.4381	1006	2018-07-18 14:00:04	-0.8209	34.9062
S1	13.9484	76.4381	1006	2018-07-18 15:00:05	-0.8193	34.9063
S1	13.9484	76.4381	1006	2018-07-18 16:00:05	-0.8196	34.906
S1	13.9484	76.4381	1006	2018-07-18 17:00:04	-0.8139	34.906
S1	13.9484	76.4381	1006	2018-07-18 18:00:05	-0.818	34.906
S1	13.9484	76.4381	1006	2018-07-18 19:00:05	-0.8052	34.906
S1	13.9484	76.4381	1006	2018-07-18 20:00:04	-0.814	34.9061
S1	13.9484	76.4381	1006	2018-07-18 21:00:05	-0.8105	34.9065
S1	13.9484	76.4381	1006	2018-07-18 22:00:05	-0.8075	34.9061
S1	13.9484	76.4381	1006	2018-07-18 23:00:04	-0.8025	34.9062
S1	13.9484	76.4381	1006	2018-07-19 00:00:05	-0.8057	34.9061
S1	13.9484	76.4381	1006	2018-07-19 01:00:05	-0.8043	34.9062
S1	13.9484	76.4381	1006	2018-07-19 02:00:04	-0.8041	34.9062
S1	13.9484	76.4381	1006	2018-07-19 03:00:05	-0.8006	34.906
S1	13.9484	76.4381	1006	2018-07-19 04:00:05	-0.7965	34.9058
S1	13.9484	76.4381	1006	2018-07-19 05:00:04	-0.7997	34.9063
S1	13.9484	76.4381	1006	2018-07-19 06:00:05	-0.796	34.906
S1	13.9484	76.4381	1006	2018-07-19 07:00:05	-0.7998	34.9064
S1	13.9484	76.4381	1006	2018-07-19 08:00:04	-0.8115	34.9061
S1	13.9484	76.4381	1006	2018-07-19 09:00:05	-0.8088	34.9056
S1	13.9484	76.4381	1006	2018-07-19 10:00:05	-0.8164	34.9062
S1	13.9484	76.4381	1006	2018-07-19 11:00:04	-0.8195	34.9061
S1	13.9484	76.4381	1006	2018-07-19 12:00:05	-0.8226	34.9064
S1	13.9484	76.4381	1006	2018-07-19 13:00:05	-0.8168	34.9058
S1	13.9484	76.4381	1006	2018-07-19 14:00:04	-0.8154	34.9059
S1	13.9484	76.4381	1006	2018-07-19 15:00:05	-0.8144	34.9058
S1	13.9484	76.4381	1006	2018-07-19 16:00:05	-0.8107	34.9061
S1	13.9484	76.4381	1006	2018-07-19 17:00:04	-0.8156	34.9061
S1	13.9484	76.4381	1006	2018-07-19 18:00:05	-0.8134	34.9064
S1	13.9484	76.4381	1006	2018-07-19 19:00:05	-0.8057	34.9065
S1	13.9484	76.4381	1006	2018-07-19 20:00:04	-0.7845	34.9063
S1	13.9484	76.4381	1006	2018-07-19 21:00:05	-0.7483	34.9063
S1	13.9484	76.4381	1006	2018-07-19 22:00:05	-0.7547	34.9062
S1	13.9484	76.4381	1006	2018-07-19 23:00:04	-0.7493	34.9062
S1	13.9484	76.4381	1006	2018-07-20 00:00:05	-0.7067	34.9061
S1	13.9484	76.4381	1006	2018-07-20 01:00:05	-0.6648	34.9064
S1	13.9484	76.4381	1006	2018-07-20 02:00:04	-0.651	34.9067
S1	13.9484	76.4381	1006	2018-07-20 03:00:05	-0.6239	34.907
S1	13.9484	76.4381	1006	2018-07-20 04:00:05	-0.6002	34.9068
S1	13.9484	76.4381	1006	2018-07-20 05:00:04	-0.5698	34.9049
S1	13.9484	76.4381	1006	2018-07-20 06:00:05	-0.595	34.9069
S1	13.9484	76.4381	1006	2018-07-20 07:00:05	-0.6308	34.9066
S1	13.9484	76.4381	1006	2018-07-20 08:00:04	-0.6431	34.9064
S1	13.9484	76.4381	1006	2018-07-20 09:00:05	-0.7065	34.9064
S1	13.9484	76.4381	1006	2018-07-20 10:00:05	-0.7542	34.9061
S1	13.9484	76.4381	1006	2018-07-20 11:00:04	-0.7577	34.9064
S1	13.9484	76.4381	1006	2018-07-20 12:00:05	-0.7497	34.9063
S1	13.9484	76.4381	1006	2018-07-20 13:00:05	-0.7565	34.906
S1	13.9484	76.4381	1006	2018-07-20 14:00:04	-0.7556	34.9066
S1	13.9484	76.4381	1006	2018-07-20 15:00:05	-0.7696	34.9065
S1	13.9484	76.4381	1006	2018-07-20 16:00:05	-0.7767	34.9062
S1	13.9484	76.4381	1006	2018-07-20 17:00:04	-0.7931	34.9061
S1	13.9484	76.4381	1006	2018-07-20 18:00:05	-0.7938	34.9061
S1	13.9484	76.4381	1006	2018-07-20 19:00:05	-0.7883	34.9064
S1	13.9484	76.4381	1006	2018-07-20 20:00:04	-0.7825	34.9063
S1	13.9484	76.4381	1006	2018-07-20 21:00:05	-0.7936	34.9061
S1	13.9484	76.4381	1006	2018-07-20 22:00:05	-0.7909	34.9064
S1	13.9484	76.4381	1006	2018-07-20 23:00:04	-0.7204	34.906
S1	13.9484	76.4381	1006	2018-07-21 00:00:05	-0.6951	34.9063
S1	13.9484	76.4381	1006	2018-07-21 01:00:05	-0.6718	34.9063
S1	13.9484	76.4381	1006	2018-07-21 02:00:04	-0.6495	34.9057
S1	13.9484	76.4381	1006	2018-07-21 03:00:05	-0.6717	34.9065
S1	13.9484	76.4381	1006	2018-07-21 04:00:05	-0.7761	34.9062
S1	13.9484	76.4381	1006	2018-07-21 05:00:04	-0.7997	34.9061
S1	13.9484	76.4381	1006	2018-07-21 06:00:05	-0.8057	34.9061
S1	13.9484	76.4381	1006	2018-07-21 07:00:05	-0.811	34.9062
S1	13.9484	76.4381	1006	2018-07-21 08:00:04	-0.7886	34.9068
S1	13.9484	76.4381	1006	2018-07-21 09:00:05	-0.7903	34.9061
S1	13.9484	76.4381	1006	2018-07-21 10:00:05	-0.7794	34.9063
S1	13.9484	76.4381	1006	2018-07-21 11:00:04	-0.7584	34.9061
S1	13.9484	76.4381	1006	2018-07-21 12:00:05	-0.7906	34.906
S1	13.9484	76.4381	1006	2018-07-21 13:00:05	-0.799	34.9057
S1	13.9484	76.4381	1006	2018-07-21 14:00:04	-0.8032	34.9062
S1	13.9484	76.4381	1006	2018-07-21 15:00:05	-0.8018	34.9065
S1	13.9484	76.4381	1006	2018-07-21 16:00:05	-0.8015	34.9062
S1	13.9484	76.4381	1006	2018-07-21 17:00:04	-0.787	34.9064
S1	13.9484	76.4381	1006	2018-07-21 18:00:05	-0.8034	34.9064
S1	13.9484	76.4381	1006	2018-07-21 19:00:05	-0.8228	34.9066
S1	13.9484	76.4381	1006	2018-07-21 20:00:04	-0.8132	34.9065
S1	13.9484	76.4381	1006	2018-07-21 21:00:05	-0.8163	34.9063
S1	13.9484	76.4381	1006	2018-07-21 22:00:05	-0.8245	34.9066
S1	13.9484	76.4381	1006	2018-07-21 23:00:04	-0.8228	34.9066
S1	13.9484	76.4381	1006	2018-07-22 00:00:05	-0.8251	34.9063
S1	13.9484	76.4381	1006	2018-07-22 01:00:05	-0.819	34.9061
S1	13.9484	76.4381	1006	2018-07-22 02:00:04	-0.7886	34.9063
S1	13.9484	76.4381	1006	2018-07-22 03:00:05	-0.7518	34.9057
S1	13.9484	76.4381	1006	2018-07-22 04:00:05	-0.7113	34.9063
S1	13.9484	76.4381	1006	2018-07-22 05:00:04	-0.7293	34.906
S1	13.9484	76.4381	1006	2018-07-22 06:00:05	-0.7838	34.9064
S1	13.9484	76.4381	1006	2018-07-22 07:00:05	-0.795	34.906
S1	13.9484	76.4381	1006	2018-07-22 08:00:04	-0.7993	34.9061
S1	13.9484	76.4381	1006	2018-07-22 09:00:05	-0.8096	34.906
S1	13.9484	76.4381	1006	2018-07-22 10:00:05	-0.8071	34.9062
S1	13.9484	76.4381	1006	2018-07-22 11:00:04	-0.8008	34.9063
S1	13.9484	76.4381	1006	2018-07-22 12:00:05	-0.8289	34.9065
S1	13.9484	76.4381	1006	2018-07-22 13:00:05	-0.831	34.9066
S1	13.9484	76.4381	1006	2018-07-22 14:00:04	-0.8187	34.9064
S1	13.9484	76.4381	1006	2018-07-22 15:00:05	-0.8191	34.9062
S1	13.9484	76.4381	1006	2018-07-22 16:00:05	-0.8172	34.9062
S1	13.9484	76.4381	1006	2018-07-22 17:00:04	-0.8173	34.9057
S1	13.9484	76.4381	1006	2018-07-22 18:00:05	-0.8181	34.9059
S1	13.9484	76.4381	1006	2018-07-22 19:00:05	-0.8162	34.9063
S1	13.9484	76.4381	1006	2018-07-22 20:00:04	-0.8209	34.9065
S1	13.9484	76.4381	1006	2018-07-22 21:00:05	-0.828	34.9066
S1	13.9484	76.4381	1006	2018-07-22 22:00:05	-0.8306	34.9065
S1	13.9484	76.4381	1006	2018-07-22 23:00:04	-0.8302	34.9067
S1	13.9484	76.4381	1006	2018-07-23 00:00:05	-0.8071	34.9061
S1	13.9484	76.4381	1006	2018-07-23 01:00:05	-0.6916	34.9065
S1	13.9484	76.4381	1006	2018-07-23 02:00:04	-0.6701	34.9063
S1	13.9484	76.4381	1006	2018-07-23 03:00:05	-0.5535	34.9068
S1	13.9484	76.4381	1006	2018-07-23 04:00:05	-0.6526	34.9069
S1	13.9484	76.4381	1006	2018-07-23 05:00:04	-0.7598	34.9062
S1	13.9484	76.4381	1006	2018-07-23 06:00:05	-0.778	34.906
S1	13.9484	76.4381	1006	2018-07-23 07:00:05	-0.823	34.9065
S1	13.9484	76.4381	1006	2018-07-23 08:00:04	-0.8173	34.9066
S1	13.9484	76.4381	1006	2018-07-23 09:00:05	-0.8265	34.9066
S1	13.9484	76.4381	1006	2018-07-23 10:00:05	-0.8152	34.9063
S1	13.9484	76.4381	1006	2018-07-23 11:00:04	-0.8273	34.9067
S1	13.9484	76.4381	1006	2018-07-23 12:00:05	-0.8324	34.9067
S1	13.9484	76.4381	1006	2018-07-23 13:00:05	-0.8317	34.9066
S1	13.9484	76.4381	1006	2018-07-23 14:00:04	-0.8299	34.9064
S1	13.9484	76.4381	1006	2018-07-23 15:00:05	-0.8185	34.9065
S1	13.9484	76.4381	1006	2018-07-23 16:00:05	-0.7999	34.9061
S1	13.9484	76.4381	1006	2018-07-23 17:00:04	-0.8008	34.906
S1	13.9484	76.4381	1006	2018-07-23 18:00:05	-0.8006	34.9063
S1	13.9484	76.4381	1006	2018-07-23 19:00:05	-0.8057	34.9065
S1	13.9484	76.4381	1006	2018-07-23 20:00:04	-0.8074	34.9061
S1	13.9484	76.4381	1006	2018-07-23 21:00:05	-0.8044	34.9064
S1	13.9484	76.4381	1006	2018-07-23 22:00:05	-0.8006	34.9062
S1	13.9484	76.4381	1006	2018-07-23 23:00:04	-0.7637	34.9065
S1	13.9484	76.4381	1006	2018-07-24 00:00:05	-0.637	34.9062
S1	13.9484	76.4381	1006	2018-07-24 01:00:05	-0.5948	34.9069
S1	13.9484	76.4381	1006	2018-07-24 02:00:04	-0.5722	34.9056
S1	13.9484	76.4381	1006	2018-07-24 03:00:05	-0.5377	34.9078
S1	13.9484	76.4381	1006	2018-07-24 04:00:05	-0.5154	34.9062
S1	13.9484	76.4381	1006	2018-07-24 05:00:04	-0.531	34.9071
S1	13.9484	76.4381	1006	2018-07-24 06:00:05	-0.5054	34.907
S1	13.9484	76.4381	1006	2018-07-24 07:00:05	-0.5531	34.907
S1	13.9484	76.4381	1006	2018-07-24 08:00:04	-0.5576	34.9071
S1	13.9484	76.4381	1006	2018-07-24 09:00:05	-0.5212	34.9068
S1	13.9484	76.4381	1006	2018-07-24 10:00:05	-0.5846	34.9071
S1	13.9484	76.4381	1006	2018-07-24 11:00:04	-0.5941	34.9065
S1	13.9484	76.4381	1006	2018-07-24 12:00:05	-0.7087	34.9057
S1	13.9484	76.4381	1006	2018-07-24 13:00:05	-0.7737	34.906
S1	13.9484	76.4381	1006	2018-07-24 14:00:04	-0.7941	34.9065
S1	13.9484	76.4381	1006	2018-07-24 15:00:05	-0.8135	34.9059
S1	13.9484	76.4381	1006	2018-07-24 16:00:05	-0.8074	34.9063
S1	13.9484	76.4381	1006	2018-07-24 17:00:04	-0.8082	34.9062
S1	13.9484	76.4381	1006	2018-07-24 18:00:05	-0.7648	34.9063
S1	13.9484	76.4381	1006	2018-07-24 19:00:05	-0.6616	34.9065
S1	13.9484	76.4381	1006	2018-07-24 20:00:04	-0.6819	34.9059
S1	13.9484	76.4381	1006	2018-07-24 21:00:05	-0.7841	34.9063
S1	13.9484	76.4381	1006	2018-07-24 22:00:05	-0.8026	34.9061
S1	13.9484	76.4381	1006	2018-07-24 23:00:04	-0.8005	34.9062
S1	13.9484	76.4381	1006	2018-07-25 00:00:05	-0.7946	34.9062
S1	13.9484	76.4381	1006	2018-07-25 01:00:05	-0.7909	34.9059
S1	13.9484	76.4381	1006	2018-07-25 02:00:04	-0.789	34.906
S1	13.9484	76.4381	1006	2018-07-25 03:00:05	-0.7844	34.906
S1	13.9484	76.4381	1006	2018-07-25 04:00:05	-0.7655	34.9045
S1	13.9484	76.4381	1006	2018-07-25 05:00:04	-0.7681	34.906
S1	13.9484	76.4381	1006	2018-07-25 06:00:05	-0.7497	34.9061
S1	13.9484	76.4381	1006	2018-07-25 07:00:05	-0.7229	34.906
S1	13.9484	76.4381	1006	2018-07-25 08:00:04	-0.7301	34.9059
S1	13.9484	76.4381	1006	2018-07-25 09:00:05	-0.7772	34.906
S1	13.9484	76.4381	1006	2018-07-25 10:00:05	-0.7749	34.906
S1	13.9484	76.4381	1006	2018-07-25 11:00:04	-0.7665	34.9061
S1	13.9484	76.4381	1006	2018-07-25 12:00:05	-0.778	34.9061
S1	13.9484	76.4381	1006	2018-07-25 13:00:05	-0.7857	34.9061
S1	13.9484	76.4381	1006	2018-07-25 14:00:04	-0.7949	34.9063
S1	13.9484	76.4381	1006	2018-07-25 15:00:05	-0.798	34.9061
S1	13.9484	76.4381	1006	2018-07-25 16:00:05	-0.7984	34.9064
S1	13.9484	76.4381	1006	2018-07-25 17:00:04	-0.7826	34.906
S1	13.9484	76.4381	1006	2018-07-25 18:00:05	-0.7951	34.9061
S1	13.9484	76.4381	1006	2018-07-25 19:00:05	-0.7865	34.9063
S1	13.9484	76.4381	1006	2018-07-25 20:00:04	-0.7485	34.906
S1	13.9484	76.4381	1006	2018-07-25 21:00:05	-0.7698	34.9061
S1	13.9484	76.4381	1006	2018-07-25 22:00:05	-0.7908	34.9062
S1	13.9484	76.4381	1006	2018-07-25 23:00:04	-0.769	34.9058
S1	13.9484	76.4381	1006	2018-07-26 00:00:05	-0.7774	34.9064
S1	13.9484	76.4381	1006	2018-07-26 01:00:05	-0.7873	34.906
S1	13.9484	76.4381	1006	2018-07-26 02:00:04	-0.793	34.9063
S1	13.9484	76.4381	1006	2018-07-26 03:00:05	-0.7702	34.9061
S1	13.9484	76.4381	1006	2018-07-26 04:00:05	-0.7709	34.9057
S1	13.9484	76.4381	1006	2018-07-26 05:00:04	-0.7971	34.9062
S1	13.9484	76.4381	1006	2018-07-26 06:00:05	-0.8114	34.9061
S1	13.9484	76.4381	1006	2018-07-26 07:00:05	-0.8175	34.9064
S1	13.9484	76.4381	1006	2018-07-26 08:00:04	-0.7982	34.906
S1	13.9484	76.4381	1006	2018-07-26 09:00:05	-0.8105	34.9061
S1	13.9484	76.4381	1006	2018-07-26 10:00:05	-0.7932	34.9059
S1	13.9484	76.4381	1006	2018-07-26 11:00:04	-0.7974	34.9065
S1	13.9484	76.4381	1006	2018-07-26 12:00:05	-0.7997	34.9059
S1	13.9484	76.4381	1006	2018-07-26 13:00:05	-0.8059	34.9056
S1	13.9484	76.4381	1006	2018-07-26 14:00:04	-0.8184	34.9066
S1	13.9484	76.4381	1006	2018-07-26 15:00:05	-0.8098	34.9063
S1	13.9484	76.4381	1006	2018-07-26 16:00:05	-0.7974	34.9062
S1	13.9484	76.4381	1006	2018-07-26 17:00:04	-0.8133	34.9063
S1	13.9484	76.4381	1006	2018-07-26 18:00:05	-0.8067	34.9063
S1	13.9484	76.4381	1006	2018-07-26 19:00:05	-0.8227	34.9065
S1	13.9484	76.4381	1006	2018-07-26 20:00:04	-0.8198	34.9063
S1	13.9484	76.4381	1006	2018-07-26 21:00:05	-0.8036	34.9063
S1	13.9484	76.4381	1006	2018-07-26 22:00:05	-0.8027	34.9062
S1	13.9484	76.4381	1006	2018-07-26 23:00:04	-0.7954	34.9062
S1	13.9484	76.4381	1006	2018-07-27 00:00:05	-0.8002	34.9064
S1	13.9484	76.4381	1006	2018-07-27 01:00:05	-0.8157	34.9062
S1	13.9484	76.4381	1006	2018-07-27 02:00:04	-0.8136	34.9062
S1	13.9484	76.4381	1006	2018-07-27 03:00:05	-0.7734	34.9063
S1	13.9484	76.4381	1006	2018-07-27 04:00:05	-0.7739	34.9059
S1	13.9484	76.4381	1006	2018-07-27 05:00:04	-0.7939	34.906
S1	13.9484	76.4381	1006	2018-07-27 06:00:05	-0.8008	34.9062
S1	13.9484	76.4381	1006	2018-07-27 07:00:05	-0.7967	34.906
S1	13.9484	76.4381	1006	2018-07-27 08:00:04	-0.8048	34.9062
S1	13.9484	76.4381	1006	2018-07-27 09:00:05	-0.8045	34.9061
S1	13.9484	76.4381	1006	2018-07-27 10:00:05	-0.804	34.9061
S1	13.9484	76.4381	1006	2018-07-27 11:00:04	-0.8003	34.9063
S1	13.9484	76.4381	1006	2018-07-27 12:00:05	-0.7964	34.9063
S1	13.9484	76.4381	1006	2018-07-27 13:00:05	-0.7898	34.906
S1	13.9484	76.4381	1006	2018-07-27 14:00:04	-0.7806	34.906
S1	13.9484	76.4381	1006	2018-07-27 15:00:05	-0.776	34.906
S1	13.9484	76.4381	1006	2018-07-27 16:00:05	-0.7564	34.9058
S1	13.9484	76.4381	1006	2018-07-27 17:00:04	-0.7316	34.9057
S1	13.9484	76.4381	1006	2018-07-27 18:00:05	-0.7611	34.9061
S1	13.9484	76.4381	1006	2018-07-27 19:00:05	-0.6896	34.9049
S1	13.9484	76.4381	1006	2018-07-27 20:00:04	-0.6915	34.9063
S1	13.9484	76.4381	1006	2018-07-27 21:00:05	-0.7004	34.9069
S1	13.9484	76.4381	1006	2018-07-27 22:00:05	-0.7252	34.9058
S1	13.9484	76.4381	1006	2018-07-27 23:00:04	-0.7305	34.9058
S1	13.9484	76.4381	1006	2018-07-28 00:00:05	-0.7496	34.9061
S1	13.9484	76.4381	1006	2018-07-28 01:00:05	-0.7443	34.906
S1	13.9484	76.4381	1006	2018-07-28 02:00:04	-0.7513	34.9058
S1	13.9484	76.4381	1006	2018-07-28 03:00:05	-0.7202	34.9064
S1	13.9484	76.4381	1006	2018-07-28 04:00:05	-0.6726	34.9065
S1	13.9484	76.4381	1006	2018-07-28 05:00:04	-0.7066	34.9066
S1	13.9484	76.4381	1006	2018-07-28 06:00:05	-0.6743	34.9062
S1	13.9484	76.4381	1006	2018-07-28 07:00:05	-0.6804	34.9061
S1	13.9484	76.4381	1006	2018-07-28 08:00:04	-0.6955	34.9064
S1	13.9484	76.4381	1006	2018-07-28 09:00:05	-0.7133	34.9061
S1	13.9484	76.4381	1006	2018-07-28 10:00:05	-0.7233	34.9055
S1	13.9484	76.4381	1006	2018-07-28 11:00:04	-0.7372	34.9063
S1	13.9484	76.4381	1006	2018-07-28 12:00:05	-0.7536	34.9059
S1	13.9484	76.4381	1006	2018-07-28 13:00:05	-0.7747	34.9059
S1	13.9484	76.4381	1006	2018-07-28 14:00:04	-0.7786	34.9058
S1	13.9484	76.4381	1006	2018-07-28 15:00:05	-0.7565	34.9059
S1	13.9484	76.4381	1006	2018-07-28 16:00:05	-0.7419	34.9059
S1	13.9484	76.4381	1006	2018-07-28 17:00:04	-0.7389	34.9057
S1	13.9484	76.4381	1006	2018-07-28 18:00:05	-0.7311	34.9061
S1	13.9484	76.4381	1006	2018-07-28 19:00:05	-0.7186	34.9056
S1	13.9484	76.4381	1006	2018-07-28 20:00:04	-0.7444	34.906
S1	13.9484	76.4381	1006	2018-07-28 21:00:05	-0.7404	34.9049
S1	13.9484	76.4381	1006	2018-07-28 22:00:05	-0.6896	34.9061
S1	13.9484	76.4381	1006	2018-07-28 23:00:04	-0.6914	34.9056
S1	13.9484	76.4381	1006	2018-07-29 00:00:05	-0.7345	34.9064
S1	13.9484	76.4381	1006	2018-07-29 01:00:05	-0.5456	34.9064
S1	13.9484	76.4381	1006	2018-07-29 02:00:04	-0.5078	34.9072
S1	13.9484	76.4381	1006	2018-07-29 03:00:05	-0.588	34.9069
S1	13.9484	76.4381	1006	2018-07-29 04:00:05	-0.5263	34.9071
S1	13.9484	76.4381	1006	2018-07-29 05:00:04	-0.303	34.9104
S1	13.9484	76.4381	1006	2018-07-29 06:00:05	-0.5405	34.9081
S1	13.9484	76.4381	1006	2018-07-29 07:00:05	-0.5319	34.9072
S1	13.9484	76.4381	1006	2018-07-29 08:00:04	-0.552	34.9068
S1	13.9484	76.4381	1006	2018-07-29 09:00:05	-0.5358	34.9059
S1	13.9484	76.4381	1006	2018-07-29 10:00:05	-0.6355	34.9069
S1	13.9484	76.4381	1006	2018-07-29 11:00:04	-0.6673	34.9062
S1	13.9484	76.4381	1006	2018-07-29 12:00:05	-0.7303	34.9056
S1	13.9484	76.4381	1006	2018-07-29 13:00:05	-0.707	34.9061
S1	13.9484	76.4381	1006	2018-07-29 14:00:04	-0.7294	34.9053
S1	13.9484	76.4381	1006	2018-07-29 15:00:05	-0.7426	34.9058
S1	13.9484	76.4381	1006	2018-07-29 16:00:05	-0.7433	34.905
S1	13.9484	76.4381	1006	2018-07-29 17:00:04	-0.7376	34.906
S1	13.9484	76.4381	1006	2018-07-29 18:00:05	-0.7041	34.9059
S1	13.9484	76.4381	1006	2018-07-29 19:00:05	-0.734	34.9063
S1	13.9484	76.4381	1006	2018-07-29 20:00:04	-0.6994	34.9061
S1	13.9484	76.4381	1006	2018-07-29 21:00:05	-0.6415	34.9063
S1	13.9484	76.4381	1006	2018-07-29 22:00:05	-0.522	34.9065
S1	13.9484	76.4381	1006	2018-07-29 23:00:04	-0.5191	34.9069
S1	13.9484	76.4381	1006	2018-07-30 00:00:05	-0.4422	34.9083
S1	13.9484	76.4381	1006	2018-07-30 01:00:05	-0.4209	34.9075
S1	13.9484	76.4381	1006	2018-07-30 02:00:04	-0.432	34.9077
S1	13.9484	76.4381	1006	2018-07-30 03:00:05	-0.3354	34.9103
S1	13.9484	76.4381	1006	2018-07-30 04:00:05	-0.4718	34.9075
S1	13.9484	76.4381	1006	2018-07-30 05:00:04	-0.3515	34.9082
S1	13.9484	76.4381	1006	2018-07-30 06:00:05	-0.4099	34.9066
S1	13.9484	76.4381	1006	2018-07-30 07:00:05	-0.3805	34.9078
S1	13.9484	76.4381	1006	2018-07-30 08:00:04	-0.3949	34.9075
S1	13.9484	76.4381	1006	2018-07-30 09:00:05	-0.431	34.9077
S1	13.9484	76.4381	1006	2018-07-30 10:00:05	-0.4663	34.9072
S1	13.9484	76.4381	1006	2018-07-30 11:00:04	-0.4947	34.9069
S1	13.9484	76.4381	1006	2018-07-30 12:00:05	-0.5211	34.9066
S1	13.9484	76.4381	1006	2018-07-30 13:00:05	-0.5265	34.9065
S1	13.9484	76.4381	1006	2018-07-30 14:00:04	-0.545	34.9062
S1	13.9484	76.4381	1006	2018-07-30 15:00:05	-0.541	34.9063
S1	13.9484	76.4381	1006	2018-07-30 16:00:05	-0.5268	34.9062
S1	13.9484	76.4381	1006	2018-07-30 17:00:04	-0.5429	34.9064
S1	13.9484	76.4381	1006	2018-07-30 18:00:05	-0.4773	34.907
S1	13.9484	76.4381	1006	2018-07-30 19:00:05	-0.5137	34.9068
S1	13.9484	76.4381	1006	2018-07-30 20:00:04	-0.5335	34.9066
S1	13.9484	76.4381	1006	2018-07-30 21:00:05	-0.4807	34.9073
S1	13.9484	76.4381	1006	2018-07-30 22:00:05	-0.4429	34.9074
S1	13.9484	76.4381	1006	2018-07-30 23:00:04	-0.4191	34.9077
S1	13.9484	76.4381	1006	2018-07-31 00:00:05	-0.3679	34.9078
S1	13.9484	76.4381	1006	2018-07-31 01:00:05	-0.3358	34.9092
S1	13.9484	76.4381	1006	2018-07-31 02:00:04	-0.2588	34.9097
S1	13.9484	76.4381	1006	2018-07-31 03:00:05	-0.2567	34.9091
S1	13.9484	76.4381	1006	2018-07-31 04:00:05	-0.1221	34.9119
S1	13.9484	76.4381	1006	2018-07-31 05:00:04	-0.2493	34.9096
S1	13.9484	76.4381	1006	2018-07-31 06:00:05	-0.2637	34.9095
S1	13.9484	76.4381	1006	2018-07-31 07:00:05	-0.4667	34.9073
S1	13.9484	76.4381	1006	2018-07-31 08:00:04	-0.3993	34.9079
S1	13.9484	76.4381	1006	2018-07-31 09:00:05	-0.4941	34.9068
S1	13.9484	76.4381	1006	2018-07-31 10:00:05	-0.5425	34.9076
S1	13.9484	76.4381	1006	2018-07-31 11:00:04	-0.5873	34.9067
S1	13.9484	76.4381	1006	2018-07-31 12:00:05	-0.6386	34.9059
S1	13.9484	76.4381	1006	2018-07-31 13:00:05	-0.6755	34.9063
S1	13.9484	76.4381	1006	2018-07-31 14:00:04	-0.5918	34.9061
S1	13.9484	76.4381	1006	2018-07-31 15:00:05	-0.6206	34.9066
S1	13.9484	76.4381	1006	2018-07-31 16:00:05	-0.5688	34.9062
S1	13.9484	76.4381	1006	2018-07-31 17:00:04	-0.5403	34.9066
S1	13.9484	76.4381	1006	2018-07-31 18:00:05	-0.6152	34.9062